Miscellaneous Local Product
Issued by NWS Hastings, NE

Home | Current Version | Previous Version | Text Only | Print | Product List | Glossary On
Versions: 1 2 3 4 5 6 7 8 9 10 11 12 13 14 15 16 17 18 19 20 21 22 23 24 25 26 27 28 29 30 31 32 33 34 35 36 37 38 39 40 41 42 43 44 45 46 47 48 49 50
000
AXUS43 KGID 280702
MISGRI

GID CWA HOURLY WEATHER ROUNDUP
NATIONAL WEATHER SERVICE HASTINGS NE
200 AM CDT FRI AUG 28 2015

NOTE: "FAIR" INDICATES FEW OR NO CLOUDS BELOW 12,000 FEET WITH NO
SIGNIFICANT WEATHER AND/OR OBSTRUCTIONS TO VISIBILITY.

...SOUTH CENTRAL NEBRASKA...

CITY           SKY/WX    TMP DP  RH WIND       PRES   REMARKS
GRAND ISLAND   MOCLDY    73  65  75 SW13      29.84S
HASTINGS       MOCLDY    72  66  81 SW14G22   29.83F
KEARNEY        PTCLDY    72  63  73 SW12      29.85S
ORD            PTCLDY    65  63  93 N6        29.84S
YORK           CLOUDY    72  68  88 S10       29.84F
AURORA         CLOUDY    73  67  82 S6        29.84S
LEXINGTON      MOCLDY    69  67  94 W7        29.89S FOG
HOLDREGE       CLEAR     70  64  80 S7        29.87S
HEBRON         MOCLDY    76  63  63 S23G29    29.84R

...NEBRASKA PANHANDLE...

CITY           SKY/WX    TMP DP  RH WIND       PRES   REMARKS
CHADRON        PTCLDY    57  53  86 CALM      30.02F
ALLIANCE       PTCLDY    54  52  93 W7        30.04S
SCOTTSBLUFF    PTCLDY    59  55  87 N7        30.06F
SIDNEY         PTCLDY    60  55  83 W10       30.09R

...WESTERN AND NORTH CENTRAL NEBRASKA...

CITY           SKY/WX    TMP DP  RH WIND       PRES   REMARKS
VALENTINE      NOT AVBL
AINSWORTH      LGT RAIN  69  68  98 E3        29.92R
ONEILL         CLOUDY    69  66  92 E6        29.88F
BROKEN BOW     MOCLDY    68  65  90 N3        29.89R
IMPERIAL       CLEAR     65  59  81 NW9       30.00S
NORTH PLATTE   CLEAR     68  64  87 NW10      29.93S
MCCOOK         CLEAR     69  63  81 NW10      29.93R

...EASTERN NEBRASKA...

CITY           SKY/WX    TMP DP  RH WIND       PRES   REMARKS
NORFOLK        CLOUDY    68  65  90 SE17G24   29.83F
SO SIOUX CITY  HVY RAIN  66  64  93 E14       29.92F FOG
TEKAMAH        HVY RAIN  67  66  97 E10G17    29.95R FOG
COLUMBUS       CLOUDY   N/A N/A N/A SE6       29.86F
ALBION         CLOUDY    67  64  91 SE8       29.83S
OMAHA EPPLEY   TSTM      69  67  93 S12       29.96F
OFFUTT AFB     TSTM      68  66  94 E14       29.93F FOG
MILLARD        RAIN      69  67  94 SE10      29.93F
LINCOLN        TSTM      69  68  96 E14       29.87F FOG
NEBRASKA CITY  LGT RAIN  69  68  96 SE7       29.92R
BEATRICE       CLOUDY    71  66  85 S21G26    29.84F
FALLS CITY     LGT RAIN  70  67  90 SE14      29.91F

...NORTHERN KANSAS...

CITY           SKY/WX    TMP DP  RH WIND       PRES   REMARKS
GOODLAND       MOCLDY    65  60  84 NW9       30.03R
HILL CITY      PTCLDY    75  63  66 SW8       29.91R
NORTON         SUNNY     70  63  78 W10       29.89S
PHILLIPSBURG   CLEAR     79  63  57 S12       29.87S
SMITH CENTER   CLOUDY    70  66  88 SE10      29.88S
HAYS           MOCLDY    75  57  53 S17       29.88R
RUSSELL        MOCLDY    75  66  73 S13       29.88F
CONCORDIA      CLOUDY    71  66  84 S22G31    29.88F
SALINA         CLOUDY    76  68  76 SE9       29.92R
TOPEKA         CLOUDY    71  65  81 S5        29.97R



USA.gov is the U.S. government's official web portal to all federal, state and local government web resources and services.